Le nostre stazioni meteo in Italia

Pubblicità
Il mio iltempo24.it
Monte S. Angelo, Italia (16258): Temperatura & dewpoint: 24.05.2020 22:00:00 - 30.05.2020 22:00:00 (CEST)Monte S. Angelo, Italia (16258): velocità del vento: 24.05.2020 22:00:00 - 30.05.2020 22:00:00 (CEST)Monte S. Angelo, Italia (16258): direzione del vento: 24.05.2020 22:00:00 - 30.05.2020 22:00:00 (CEST)Monte S. Angelo, Italia (16258): visibility: 24.05.2020 22:00:00 - 30.05.2020 22:00:00 (CEST)
Data & Tempo tt [°C] td [°C] ff [km/h] ff [kn] dd vv [km]
30.05.2020 22:00:00 9,0 8,2 13 7 NNO 0,1
30.05.2020 21:00:00 9,8 9,0 0 0 N -
30.05.2020 20:00:00 9,8 9,0 0 0 N -
30.05.2020 19:00:00 9,6 9,1 4 2 NE -
30.05.2020 18:00:00 9,4 8,2 8 4 SE -
30.05.2020 17:00:00 9,0 8,2 11 6 ONO 15
30.05.2020 16:00:00 9,0 8,2 4 2 S 0,1
30.05.2020 15:00:00 10,0 7,6 11 6 SSE 15
30.05.2020 14:00:00 10,6 7,7 9 5 SSE 15
30.05.2020 13:00:00 10,8 8,4 11 6 SE 15
30.05.2020 12:00:00 10,0 8,4 11 6 SE 15
30.05.2020 11:00:00 9,2 8,3 9 5 SE 15
30.05.2020 10:00:00 10,0 6,7 8 4 SE 15
30.05.2020 09:00:00 9,0 5,4 4 2 ESE 15
30.05.2020 08:00:00 8,8 6,6 4 2 SSO 10
30.05.2020 07:00:00 9,2 7,3 8 4 S 10
30.05.2020 06:00:00 9,1 6,7 2 1 E 0,1
30.05.2020 05:00:00 9,0 7,8 9 5 ONO 0,1
30.05.2020 04:00:00 9,2 8,6 9 5 ONO -
30.05.2020 03:00:00 9,8 9,0 11 6 ONO 10
30.05.2020 02:00:00 10,0 8,6 8 4 ONO 10
30.05.2020 01:00:00 9,4 7,7 11 6 ONO 10
30.05.2020 00:00:00 9,4 8,3 13 7 ONO 10
29.05.2020 23:00:00 9,8 9,2 13 7 NNE 10
29.05.2020 22:00:00 10,0 10,0 15 8 NE 10
29.05.2020 21:00:00 10,2 9,6 16 9 NE 10
29.05.2020 20:00:00 11,0 9,9 18 10 NE 20
29.05.2020 19:00:00 12,6 6,9 8 4 NNE 20
29.05.2020 18:00:00 13,2 2,7 5 3 NNE 20
29.05.2020 17:00:00 14,6 5,1 4 2 N 20
29.05.2020 16:00:00 13,8 4,9 4 2 N 20
29.05.2020 15:00:00 12,6 5,7 9 5 NNE 20
29.05.2020 14:00:00 13,4 4,0 5 3 N 20
29.05.2020 13:00:00 52,0 38,9 8 4 N 20
29.05.2020 12:00:00 13,2 1,8 5 3 N 20
29.05.2020 11:00:00 13,6 1,9 9 5 NNE 20
29.05.2020 10:00:00 12,8 1,8 8 4 NNE 20
29.05.2020 09:00:00 11,4 6,1 9 5 NNE 20
29.05.2020 08:00:00 10,0 8,3 21 11 ENE 20
29.05.2020 07:00:00 9,8 8,9 15 8 NE 20
29.05.2020 06:00:00 9,4 8,8 16 9 NE 20
29.05.2020 05:00:00 9,6 8,0 15 8 NE 20
29.05.2020 04:00:00 9,4 6,8 15 8 NNE 20
29.05.2020 03:00:00 9,6 6,3 15 8 NE 20
29.05.2020 02:00:00 10,0 5,2 21 11 ENE 20
29.05.2020 01:00:00 9,8 3,3 18 10 NE 20
29.05.2020 00:00:00 10,0 4,4 18 10 NE 20
28.05.2020 23:00:00 10,2 2,3 22 12 NE 20
28.05.2020 22:00:00 10,6 3,2 26 14 ENE 20
28.05.2020 21:00:00 10,8 2,4 24 13 ENE 20
28.05.2020 20:00:00 11,2 2,0 26 14 ENE 20
28.05.2020 19:00:00 11,4 0,8 24 13 NE 20
28.05.2020 18:00:00 12,0 -3,0 26 14 ENE 20
28.05.2020 17:00:00 12,6 0,4 24 13 ENE 20
28.05.2020 16:00:00 13,0 -1,0 22 12 NE 15
28.05.2020 15:00:00 13,2 -0,1 24 13 ENE 15
28.05.2020 14:00:00 13,0 -1,3 24 13 NE 15
28.05.2020 13:00:00 12,6 -0,6 22 12 ENE 15
28.05.2020 12:00:00 12,4 1,4 24 13 ENE 15
28.05.2020 11:00:00 12,0 4,5 21 11 ENE 15
28.05.2020 10:00:00 11,2 5,1 22 12 NE 15
28.05.2020 09:00:00 10,0 5,8 22 12 ENE 15
28.05.2020 08:00:00 9,8 7,4 21 11 NE 15
28.05.2020 07:00:00 9,0 6,6 22 12 ENE 15
28.05.2020 06:00:00 9,4 8,2 29 16 ENE 15
28.05.2020 05:00:00 9,4 8,5 21 11 NE 15
28.05.2020 04:00:00 9,4 8,6 22 12 NE 25
28.05.2020 03:00:00 9,4 9,0 24 13 ENE 25
28.05.2020 02:00:00 9,4 9,0 24 13 ENE 25
28.05.2020 01:00:00 9,4 9,0 18 10 NE 25
28.05.2020 00:00:00 9,4 8,6 29 16 ENE 25
27.05.2020 23:00:00 9,6 8,5 29 16 ENE 25
27.05.2020 22:00:00 10,0 8,9 26 14 ENE 25
27.05.2020 21:00:00 10,0 8,4 28 15 ENE 25
27.05.2020 20:00:00 10,4 7,3 31 17 E 25
27.05.2020 19:00:00 10,4 6,2 28 15 NO 25
27.05.2020 18:00:00 11,4 4,2 26 14 NO 25
27.05.2020 17:00:00 12,0 2,2 24 13 NO 25
27.05.2020 16:00:00 12,0 4,2 21 11 NO 25
27.05.2020 15:00:00 12,0 3,2 24 13 S 25
27.05.2020 14:00:00 12,0 -30,0 24 13 NO 25
27.05.2020 13:00:00 11,8 3,8 26 14 NO 25
27.05.2020 12:00:00 11,2 4,7 26 14 NO 25
27.05.2020 11:00:00 11,6 5,5 18 10 ENE 25
27.05.2020 10:00:00 10,6 6,2 24 13 NNO 25
27.05.2020 09:00:00 9,8 6,2 26 14 NNO 25
27.05.2020 08:00:00 9,2 6,8 29 16 NNO 25
27.05.2020 07:00:00 8,8 6,8 28 15 NNO 25
27.05.2020 06:00:00 8,2 7,1 21 11 NNO 25
27.05.2020 05:00:00 8,4 7,3 21 11 NNO 25
27.05.2020 04:00:00 8,6 8,0 24 13 NNO 25
27.05.2020 03:00:00 9,0 7,8 26 14 NNO 25
27.05.2020 02:00:00 9,0 7,9 24 13 NNO 20
27.05.2020 01:00:00 9,4 9,0 15 8 NNO 25
27.05.2020 00:00:00 9,8 8,9 34 18 N 25
26.05.2020 23:00:00 10,0 8,1 29 16 N 25
26.05.2020 22:00:00 10,0 8,1 24 13 N 25
26.05.2020 21:00:00 9,8 7,1 18 10 N 25
26.05.2020 20:00:00 10,2 5,2 22 12 N 25
26.05.2020 19:00:00 10,6 3,6 18 10 N 25
26.05.2020 18:00:00 11,0 2,6 16 9 ESE 25
26.05.2020 17:00:00 11,0 1,2 16 9 O 25
26.05.2020 16:00:00 11,0 2,3 21 11 NO 25
26.05.2020 15:00:00 11,8 2,8 21 11 OSO 25
26.05.2020 14:00:00 12,0 1,9 18 10 NNE 25
26.05.2020 13:00:00 12,0 1,9 28 15 E 25
26.05.2020 12:00:00 11,8 2,0 21 11 E 25
26.05.2020 11:00:00 11,4 3,7 22 12 NNO 25
26.05.2020 10:00:00 11,0 4,5 26 14 SO 25
26.05.2020 09:00:00 11,2 5,5 21 11 OSO 25
26.05.2020 08:00:00 10,0 6,7 29 16 N 25
26.05.2020 07:00:00 10,0 8,9 22 12 NNO 25
26.05.2020 06:00:00 10,0 7,6 22 12 N 25
26.05.2020 05:00:00 10,0 6,2 24 13 N 25
26.05.2020 04:00:00 9,8 9,0 28 15 N 25
26.05.2020 03:00:00 10,0 6,4 15 8 NNO 30
26.05.2020 02:00:00 10,0 5,8 15 8 NNO 30
26.05.2020 01:00:00 11,0 0,4 29 16 N 30
26.05.2020 00:00:00 11,0 -2,1 29 16 N 30
25.05.2020 23:00:00 11,8 -6,6 24 13 N 30
25.05.2020 22:00:00 12,0 -6,9 13 7 NNO 30
25.05.2020 21:00:00 12,0 -6,4 15 8 NNO 30
25.05.2020 20:00:00 13,0 -6,5 18 10 NNO 30
25.05.2020 19:00:00 14,0 -3,3 16 9 N 30
25.05.2020 18:00:00 14,0 -3,3 21 11 NNO 30
25.05.2020 17:00:00 14,0 -5,7 24 13 NNO 30
25.05.2020 16:00:00 14,4 -4,3 24 13 NNO 30
25.05.2020 15:00:00 15,4 -4,5 18 10 NNO 30
25.05.2020 14:00:00 16,0 -6,9 8 4 NO 25
25.05.2020 13:00:00 15,2 -3,2 8 4 NO 25
25.05.2020 12:00:00 15,0 -0,3 5 3 NNO 25
25.05.2020 11:00:00 14,0 1,3 8 4 N 25
25.05.2020 10:00:00 13,4 0,8 9 5 N 25
25.05.2020 09:00:00 12,8 1,2 16 9 N 20
25.05.2020 08:00:00 11,8 8,1 15 8 N 15
25.05.2020 07:00:00 11,2 8,4 13 7 N 10
25.05.2020 06:00:00 11,2 9,5 11 6 N 10
25.05.2020 05:00:00 11,2 9,6 15 8 N 10
25.05.2020 04:00:00 11,4 9,7 16 9 N 10
25.05.2020 03:00:00 11,6 10,4 16 9 N 10
25.05.2020 02:00:00 12,0 10,2 21 11 N 10
25.05.2020 01:00:00 12,0 10,2 18 10 N 10
25.05.2020 00:00:00 12,6 11,3 21 11 N 10
24.05.2020 23:00:00 12,8 12,8 15 8 N 10
24.05.2020 22:00:00 13,2 13,2 15 8 NNO 10

tt = Temperatura
td = dewpoint
ff = velocità del vento
dd = direzione del vento
vv = visibility

Stazioni seguenti

WeatherPro
AMSI
MeteoEarth